Wind_Speed
6 9 8 3 6 2 2 3 2 2 2 3 4 1 1 4 4 1 1 0 4 2 2 12 16 15 17 19 22 22 22 17 16 27 30 35 40 41 42 45 46 47 47 47 48 50 50 50 51 52 52 52 52 51 49 47 45 44 42 42 42 41 38
9 15 8 2 11 7 2 2 3 4 1 3 4 1 2 5 2 2 1 4 4 4 2 8 14 17 18 18 18 19 24 24 12 24 31 34 39 43 44 45 46 45 45 47 47 49 50 51 52 53 53 53 52 51 50 48 47 46 44 43 42 42 41
8 15 8 2 12 13 3 3 3 3 3 2 1 2 2 2 2 2 2 4 3 3 3 7 12 14 15 16 16 17 21 25 22 17 27 35 36 39 42 42 43 44 44 47 49 49 50 50 51 52 52 52 52 52 51 49 48 47 45 44 43 43 43
5 7 7 3 8 10 6 4 5 4 2 2 1 2 3 2 3 3 1 3 2 2 5 7 9 10 12 14 14 14 18 25 29 26 17 31 36 37 41 42 43 45 47 47 49 50 50 50 50 50 50 51 52 52 51 51 49 48 47 45 44 43 43
4 2 4 4 4 5 7 7 7 6 4 2 2 1 1 3 3 3 3 2 2 3 5 7 8 9 9 12 11 12 20 27 31 36 25 18 36 39 41 44 44 46 47 47 48 49 48 48 48 48 49 50 51 51 51 52 51 50 49 47 46 45 43
4 1 4 5 5 6 7 6 5 5 5 3 3 2 2 2 3 2 4 4 3 4 4 5 6 7 7 11 13 12 21 31 33 39 39 15 23 36 39 42 44 44 46 47 47 47 46 46 46 47 48 49 50 51 51 52 51 51 51 49 47 46 44
1 2 3 8 7 6 8 8 6 4 5 5 2 1 3 4 3 1 3 4 3 4 3 5 5 6 8 13 16 16 21 30 35 39 43 34 9 15 25 30 32 36 41 43 44 45 45 45 46 47 48 49 50 51 51 51 51 52 51 50 48 46 45
4 3 1 6 10 7 6 7 7 6 5 4 1 3 0 2 4 4 2 3 2 4 4 7 8 8 10 15 18 18 22 28 35 40 42 42 34 17 4 10 16 22 28 33 37 41 44 45 45 46 48 49 50 51 51 51 52 52 51 50 49 48 46
4 4 4 5 8 8 4 4 6 6 8 8 4 0 2 3 3 3 1 3 3 5 5 7 10 10 10 15 18 19 22 26 32 38 40 41 41 36 26 14 6 8 12 19 27 34 40 44 45 46 47 48 49 50 50 51 51 51 50 50 49 49 47
2 1 1 3 4 5 3 4 6 6 8 10 5 2 3 2 2 3 2 2 5 7 7 9 12 11 11 15 20 21 23 25 28 34 38 39 41 41 37 30 20 12 7 8 15 22 29 35 39 42 45 46 47 48 49 50 50 50 50 50 49 49 48
3 4 3 3 3 3 3 5 7 6 6 6 4 3 2 0 3 3 2 1 6 9 10 12 12 13 13 15 19 22 24 25 25 29 34 35 39 41 40 38 32 24 17 10 5 11 18 23 28 32 37 42 44 45 46 47 48 48 48 48 49 49 48
3 4 4 4 2 1 3 4 6 5 6 6 4 2 1 1 3 3 4 1 5 8 10 12 11 11 11 13 18 20 21 23 23 27 33 35 37 41 43 42 39 34 28 21 13 6 7 13 19 24 28 34 38 41 43 44 44 45 46 46 48 48 48
1 2 3 3 2 1 2 3 4 5 6 5 2 3 4 2 2 4 6 4 4 5 9 10 10 11 11 13 17 18 20 22 23 27 33 33 34 37 40 41 41 39 35 30 23 15 7 5 12 17 21 25 30 35 40 41 41 42 43 44 46 47 48
1 2 3 3 4 4 3 2 3 3 4 5 5 5 6 5 5 7 7 4 1 3 8 8 9 13 13 14 17 21 23 24 23 26 29 30 33 35 37 38 38 38 38 35 30 23 15 8 3 9 13 18 23 29 34 38 39 40 41 42 44 45 47
3 3 2 4 4 4 4 3 5 5 5 6 5 5 6 5 6 5 3 2 2 3 8 10 11 13 15 16 19 22 23 23 24 25 26 29 33 35 35 36 35 35 35 36 34 30 25 18 10 1 6 12 17 23 28 32 36 38 39 41 43 44 46
4 4 5 7 6 4 3 2 3 2 2 2 2 2 2 2 4 4 2 1 1 4 9 10 12 13 14 16 18 20 21 23 24 24 25 29 33 34 33 33 33 32 32 34 35 33 31 26 19 11 3 5 12 19 24 28 31 35 39 41 42 44 45
4 5 6 8 8 6 2 1 1 2 2 0 1 2 3 3 1 2 1 1 0 4 7 7 9 11 12 14 16 19 21 23 23 23 24 28 31 32 31 30 31 30 29 29 31 32 32 31 26 20 12 5 5 13 21 26 28 32 37 40 41 42 43
3 6 6 6 6 4 3 3 0 3 2 2 2 1 2 3 3 1 2 1 3 4 5 5 7 8 8 11 15 19 21 22 23 23 23 26 29 30 29 28 29 28 27 26 27 28 29 30 28 25 19 12 5 6 15 23 27 29 34 38 39 40 41
2 4 6 5 3 4 4 5 4 3 3 3 3 1 2 2 3 3 3 3 4 4 6 6 8 10 6 6 12 19 22 22 23 24 24 25 26 28 27 27 27 27 26 25 26 26 26 28 28 27 24 18 11 6 9 18 23 27 30 34 36 37 39
0 2 2 1 4 5 7 8 6 2 3 3 3 0 3 3 2 2 1 2 3 6 9 8 9 13 10 2 4 14 20 22 22 23 24 24 24 24 25 25 25 26 25 24 24 24 24 25 26 27 25 22 18 14 6 11 17 23 28 31 33 34 35
1 1 2 2 4 7 7 5 3 2 3 2 1 2 4 3 1 0 1 1 3 5 9 12 15 16 9 5 4 7 19 23 22 20 20 21 21 23 23 22 22 24 24 22 21 21 21 21 23 25 25 23 22 20 12 7 12 18 23 28 31 32 32
2 2 2 3 3 4 4 3 3 6 7 5 3 2 4 3 1 2 1 2 4 5 7 13 17 14 5 4 4 10 21 25 24 23 20 19 20 22 22 22 22 21 22 22 21 20 19 19 18 21 24 24 23 23 18 9 8 12 16 20 25 30 32
1 2 2 2 3 4 4 3 5 9 11 9 5 3 2 1 3 6 4 4 6 6 6 11 13 9 2 2 5 15 23 25 25 25 23 20 20 21 21 21 21 21 22 22 20 19 19 19 18 19 22 24 24 24 22 15 9 10 12 15 19 23 28
2 3 3 3 2 3 4 4 7 10 9 7 4 2 2 4 8 9 7 7 8 7 7 8 7 3 2 6 12 21 25 25 24 25 24 22 21 22 21 19 19 21 22 21 21 20 20 19 18 18 20 23 24 24 23 19 12 11 13 14 16 19 22
4 4 3 4 3 3 3 4 9 10 6 2 1 3 1 5 9 9 7 8 10 9 9 7 3 4 8 14 20 24 25 25 25 24 23 23 22 22 21 19 19 21 22 21 20 20 19 19 18 17 19 22 24 24 24 21 18 15 14 15 17 19 21
2 3 2 4 4 3 2 4 7 5 0 2 3 4 6 6 6 7 7 8 10 12 13 11 9 12 16 19 23 24 24 26 27 25 24 25 25 23 21 19 19 21 23 22 20 19 18 19 18 17 18 19 22 24 23 22 21 19 16 16 18 21 22
2 2 3 4 3 2 1 4 3 2 3 2 6 10 10 8 7 9 10 11 12 15 17 18 17 17 18 20 23 23 23 24 27 28 27 27 28 26 23 21 21 22 23 23 22 20 19 18 18 18 18 19 20 22 23 22 21 21 19 18 17 20 23
3 3 4 4 3 4 2 0 2 5 7 9 9 10 11 11 11 12 14 15 16 16 19 22 23 21 19 20 22 24 24 24 26 29 30 30 30 29 26 23 22 22 23 24 24 22 20 18 18 18 19 20 20 21 22 22 22 22 21 20 19 19 20
3 4 7 6 4 3 3 5 7 9 11 10 9 10 12 14 15 16 18 19 19 18 19 22 25 25 21 20 22 24 26 27 27 29 32 33 32 32 29 26 24 23 24 25 25 25 22 19 18 18 18 20 21 21 21 22 22 22 22 23 23 21 19
3 7 12 13 12 14 12 9 9 9 11 12 12 13 15 17 19 20 21 21 21 19 19 22 26 28 26 24 24 26 28 30 29 30 32 34 34 34 32 30 27 25 25 25 25 26 23 19 18 18 17 18 21 22 21 21 22 22 22 23 25 25 22
2 4 7 7 7 10 9 8 11 13 14 15 15 16 18 21 22 23 23 23 21 20 20 22 26 30 30 28 28 28 29 31 32 31 32 34 36 36 34 33 30 27 25 25 25 26 25 20 18 19 17 17 20 22 21 21 21 22 23 23 26 27 25
4 5 9 9 9 10 11 14 17 17 16 16 16 17 20 23 23 24 24 24 23 23 24 24 27 32 34 32 31 30 31 32 33 33 33 35 37 38 37 35 32 28 25 24 23 24 24 21 19 20 20 18 19 21 22 21 21 24 24 25 27 28 27
4 7 12 14 12 13 15 17 16 15 14 16 17 18 21 23 23 24 25 25 26 27 28 28 29 33 36 35 32 32 32 33 34 34 34 35 38 39 38 36 32 28 25 23 22 23 23 21 20 21 21 20 20 21 21 21 21 24 26 26 28 29 27
3 7 10 10 6 7 11 13 13 14 14 16 18 20 21 22 23 25 27 28 29 30 31 31 30 33 36 36 33 33 33 33 34 34 33 35 37 38 37 35 31 28 24 22 21 21 21 20 20 21 21 21 21 20 20 21 21 22 25 27 29 30 28
8 13 16 13 10 11 14 14 14 14 14 16 19 20 21 22 23 25 27 30 32 34 35 34 31 32 34 35 34 34 35 34 34 35 34 35 36 36 35 32 30 27 23 21 20 20 20 20 21 21 21 21 22 21 19 20 20 21 23 26 28 29 29
15 19 19 14 13 15 17 16 15 14 14 16 19 20 21 22 23 25 27 30 34 36 37 35 33 32 33 35 35 36 37 36 35 35 35 34 33 33 32 30 29 26 22 21 20 20 19 19 21 21 21 21 22 21 19 18 18 20 22 26 28 28 28
20 22 20 16 16 17 16 15 15 14 14 16 18 19 20 22 23 25 27 30 32 34 35 36 35 34 33 34 35 35 36 35 34 34 34 33 31 30 31 31 29 26 23 21 20 19 19 20 20 21 22 21 21 20 18 17 16 18 21 25 26 26 26
Wind_Direction
359 1 317 353 71 193 253 59 116 243 247 137 117 205 279 76 96 245 245 359 337 311 11 10 7 4 7 7 0 355 342 314 241 213 210 208 208 208 209 209 210 210 209 208 207 207 208 208 208 209 210 212 214 215 217 219 219 220 220 221 221 221 220
335 349 327 19 38 30 114 78 302 285 236 130 109 111 360 51 115 250 34 79 27 9 348 351 5 8 4 1 356 350 352 351 300 231 217 212 211 210 210 211 210 210 209 208 208 208 209 210 210 211 211 212 214 216 218 220 220 220 221 222 223 223 222
311 350 357 4 6 9 72 163 316 27 126 171 64 126 142 98 160 238 30 76 59 31 340 343 6 8 0 360 357 351 354 355 339 281 230 215 213 212 211 211 210 210 209 209 209 208 209 210 211 212 211 211 214 216 218 220 222 223 223 224 225 225 225
314 357 26 15 338 348 22 40 10 20 118 162 49 152 151 131 167 186 42 25 16 338 320 346 5 4 5 7 2 358 355 351 350 339 272 221 212 211 212 211 210 210 210 210 209 209 209 210 211 212 211 211 213 215 217 220 222 223 224 225 225 226 226
12 26 9 2 345 357 21 32 26 5 343 355 33 30 70 112 148 167 123 65 329 295 318 346 4 6 11 15 9 4 1 357 357 359 345 247 217 212 211 212 212 211 210 210 210 210 210 210 211 212 211 212 214 215 216 218 220 222 223 224 225 226 227
41 347 330 7 44 62 63 55 33 9 358 14 66 57 346 42 100 149 136 126 259 287 337 341 360 12 8 15 19 16 11 9 6 6 8 349 228 218 215 214 212 211 211 210 210 209 208 209 210 211 212 213 214 215 216 217 219 220 223 225 226 227 228
343 290 5 48 59 78 81 61 29 15 29 31 73 121 322 352 31 357 109 117 226 259 348 342 346 8 10 17 23 24 21 19 17 14 17 22 15 221 220 221 218 215 213 211 210 208 208 209 210 211 212 213 215 216 217 217 218 220 223 225 226 227 229
347 321 342 48 45 54 62 37 20 17 15 357 264 186 239 21 27 355 34 105 231 276 342 350 349 3 15 19 22 28 27 24 25 23 21 24 32 47 119 213 223 222 220 217 214 210 208 209 210 212 213 214 215 217 218 218 219 220 222 224 226 227 229
15 359 327 351 22 36 30 354 8 11 1 356 350 30 45 69 66 24 68 149 249 296 339 358 360 8 20 18 17 27 32 28 28 29 26 25 29 37 51 71 128 191 213 220 220 217 214 212 211 212 213 215 216 216 218 219 220 221 222 224 225 226 228
147 149 326 315 337 360 355 340 355 5 8 8 12 28 27 59 64 35 102 194 285 309 355 8 4 8 14 14 14 20 28 30 31 32 31 29 29 31 36 48 63 85 121 184 212 219 221 219 216 215 215 215 216 217 219 220 221 221 222 223 224 226 228
165 181 211 260 305 336 325 333 344 350 3 12 32 47 24 236 356 346 179 162 326 330 359 8 3 6 10 13 12 12 19 24 28 33 32 29 31 31 31 36 45 54 65 77 137 199 216 221 222 221 220 219 218 219 220 222 222 222 223 223 224 225 228
169 188 226 263 299 319 293 320 332 331 342 5 38 23 265 151 27 313 233 56 355 333 354 7 4 3 9 16 13 10 17 20 21 32 34 29 28 31 31 33 36 40 44 47 56 95 183 208 216 221 223 224 223 222 223 223 224 224 224 223 224 226 228
186 215 274 311 344 286 262 284 304 321 335 343 346 266 252 184 142 244 264 323 5 349 356 9 13 6 10 22 21 19 22 22 21 30 34 28 24 25 28 29 31 32 34 36 38 44 67 163 198 209 216 220 223 225 226 225 225 226 226 225 225 226 228
337 312 318 339 359 340 315 279 263 273 281 273 262 249 241 231 227 238 264 289 90 38 360 2 15 14 17 26 32 34 30 24 22 27 31 27 23 22 22 23 26 28 29 30 31 32 36 48 145 194 205 211 215 221 226 227 226 227 227 228 228 228 229
313 314 346 355 356 329 305 277 251 245 248 251 251 244 238 241 247 249 254 216 162 16 355 0 11 17 24 27 29 34 33 26 25 25 25 24 22 20 17 17 19 22 22 22 24 25 25 24 25 52 198 204 208 214 221 226 229 228 228 230 231 231 232
306 316 354 346 338 321 298 278 248 233 240 256 254 253 260 262 259 273 298 191 204 338 348 0 9 17 28 27 23 26 27 27 28 25 21 22 21 18 14 12 14 16 16 14 14 15 17 16 13 9 354 209 205 207 211 218 226 229 230 231 233 235 236
299 313 346 350 350 351 326 252 184 134 132 91 360 343 333 341 322 281 273 211 251 348 348 358 6 14 30 33 26 25 22 21 25 23 18 18 18 16 12 9 10 12 11 9 6 6 7 8 7 4 359 336 227 209 206 209 216 224 230 232 234 236 237
285 302 349 8 356 331 258 242 167 87 100 145 169 250 300 328 353 65 117 62 20 5 1 1 350 354 31 50 41 34 27 20 17 15 12 12 13 12 10 7 7 8 7 5 2 358 358 359 0 359 355 349 321 235 212 206 207 215 226 231 233 236 237
263 317 18 22 306 252 258 298 335 38 66 113 143 175 256 304 350 41 77 34 9 358 356 354 341 337 353 58 47 36 30 22 15 8 5 6 6 5 4 2 2 3 3 3 1 356 352 352 353 352 349 345 342 313 230 211 208 210 216 223 229 234 237
268 18 67 172 261 273 287 303 310 338 36 68 84 336 257 260 343 41 75 355 348 351 347 346 341 333 319 253 55 26 17 13 11 5 359 358 357 355 356 359 359 358 357 359 1 359 355 351 349 347 343 338 340 339 291 224 217 215 215 218 221 226 233
135 138 213 253 322 319 307 309 336 28 27 20 47 295 257 230 211 251 222 294 325 344 346 345 344 339 319 219 190 359 357 357 358 355 352 351 349 347 350 354 355 352 350 352 356 356 356 353 347 345 342 335 334 339 332 266 230 223 220 222 221 221 225
120 140 263 305 330 296 280 293 340 6 358 333 313 296 270 232 251 341 333 296 322 344 351 349 351 350 338 197 221 330 344 346 345 342 340 341 341 342 346 348 347 346 344 345 348 350 350 350 347 344 340 335 333 339 341 321 255 231 226 226 226 224 226
102 146 231 248 230 245 253 273 318 343 347 339 328 296 268 290 355 356 353 323 335 359 4 359 3 5 358 228 298 326 334 336 336 334 332 331 331 335 341 344 340 338 338 337 338 342 343 343 344 343 337 334 334 338 343 337 294 255 243 233 228 228 230
200 199 234 237 227 246 249 272 312 327 340 352 348 275 261 346 348 347 340 327 339 1 6 6 17 22 291 288 305 319 324 325 327 329 328 327 325 325 332 338 334 329 330 330 331 335 339 339 341 340 334 331 332 335 339 339 323 292 273 256 242 235 233
220 224 241 260 260 234 223 283 318 327 342 24 213 230 290 343 339 344 341 327 334 345 346 345 326 290 294 298 305 313 318 318 321 324 324 322 319 318 321 326 328 324 322 324 325 326 331 335 337 337 331 328 329 330 333 336 333 321 301 280 262 251 244
226 230 233 272 278 228 210 307 323 325 306 180 230 306 344 342 335 345 341 325 327 327 322 316 301 297 302 301 303 309 313 314 317 319 320 320 318 316 311 311 318 320 317 319 319 317 321 329 333 334 331 327 326 326 328 333 333 329 320 300 278 263 256
185 219 236 265 267 206 117 356 352 166 184 257 310 327 336 336 339 342 331 322 323 320 315 312 307 304 305 303 303 306 308 310 312 312 314 317 317 316 310 304 308 313 312 313 314 312 314 321 328 330 329 327 325 324 326 330 331 328 323 313 295 276 263
149 169 215 226 194 158 131 56 231 240 276 301 312 318 321 327 332 329 322 318 317 313 311 309 306 305 305 303 303 304 305 306 307 307 309 311 314 315 311 303 302 306 308 306 306 306 308 315 323 328 328 326 324 324 325 327 328 326 322 317 308 292 273
178 201 232 234 216 226 259 255 253 271 287 291 294 302 310 318 321 320 318 316 313 310 307 303 302 302 302 302 302 302 301 301 302 303 305 307 309 311 310 305 300 300 303 302 301 301 304 311 320 325 327 326 323 322 325 325 323 323 321 317 312 303 288
272 266 257 254 261 269 267 253 251 270 277 272 277 290 301 310 314 313 314 313 310 308 306 301 299 298 299 301 300 298 298 299 299 300 301 302 304 306 307 305 301 297 297 298 298 297 299 306 317 322 324 325 322 320 322 323 320 318 318 317 312 307 299
272 274 254 241 245 250 248 248 263 274 273 266 269 283 297 305 308 308 308 309 306 303 302 301 299 297 297 299 298 297 297 297 297 299 299 299 301 302 302 303 303 298 295 295 297 296 295 301 314 320 321 322 321 317 316 318 317 314 315 315 311 308 304
203 257 267 260 253 253 260 273 278 277 272 267 272 287 298 301 303 304 305 305 304 302 302 302 300 297 295 295 295 295 295 295 295 296 296 296 297 297 297 299 300 297 293 293 295 295 293 298 310 317 318 321 320 314 311 313 312 309 311 313 312 310 308
249 281 276 272 274 274 269 270 274 274 273 275 283 293 298 299 300 302 303 304 304 302 302 302 301 297 294 293 293 292 292 291 292 293 295 295 294 293 293 295 296 293 290 290 293 292 290 295 304 309 313 318 320 313 308 308 307 306 308 312 312 311 311
259 257 250 246 254 269 265 267 275 280 281 285 289 292 295 298 299 301 304 305 305 303 301 300 299 295 292 291 291 290 289 289 289 291 293 293 292 291 290 291 292 289 284 287 290 288 286 292 301 304 308 315 318 314 306 303 303 304 306 308 308 308 309
234 244 249 242 231 248 267 279 286 285 285 288 290 292 294 296 297 301 303 304 305 304 302 299 296 292 291 290 289 288 287 287 287 289 290 291 291 290 288 288 289 286 281 283 287 285 284 290 297 300 304 310 316 313 305 300 300 302 302 301 301 304 305
235 251 259 256 247 258 274 285 286 283 285 288 288 290 293 295 298 300 301 302 303 301 299 298 294 291 289 288 287 286 286 286 286 286 286 287 289 287 284 284 286 285 280 282 285 286 285 287 292 295 299 307 313 310 302 299 300 298 295 293 294 299 302
243 254 261 265 266 272 280 282 276 276 284 288 287 288 292 296 298 299 301 303 302 298 295 294 292 290 288 287 286 285 285 285 284 284 283 283 282 281 279 279 281 281 280 281 284 284 283 285 289 291 294 303 311 307 299 296 295 290 287 285 287 293 299
Height
1481 1482 1480 1475 1476 1479 1477 1477 1481 1482 1480 1479 1487 1497 1496 1494 1503 1504 1497 1497 1495 1491 1487 1483 1483 1480 1477 1478 1477 1476 1476 1474 1474 1473 1473 1475 1476 1478 1480 1482 1484 1487 1491 1495 1498 1501 1503 1506 1509 1511 1513 1516 1518 1522 1525 1528 1531 1533 1536 1538 1540 1543 1545
1482 1480 1478 1475 1474 1476 1480 1485 1484 1479 1479 1479 1482 1495 1503 1505 1509 1504 1501 1510 1511 1507 1502 1493 1489 1487 1484 1483 1480 1478 1477 1474 1473 1471 1470 1472 1473 1474 1476 1478 1481 1485 1489 1492 1495 1498 1500 1502 1505 1508 1511 1514 1517 1520 1523 1525 1528 1530 1533 1536 1538 1541 1543
1486 1480 1478 1479 1478 1476 1479 1484 1482 1480 1486 1487 1485 1494 1505 1511 1514 1506 1505 1514 1516 1515 1513 1502 1497 1497 1493 1490 1486 1482 1478 1476 1474 1470 1468 1469 1471 1473 1475 1476 1480 1483 1485 1489 1491 1494 1498 1500 1503 1506 1509 1513 1515 1518 1521 1523 1526 1528 1531 1534 1536 1539 1541
1489 1485 1488 1496 1494 1484 1480 1483 1485 1487 1490 1490 1489 1493 1496 1503 1512 1512 1512 1519 1519 1514 1510 1503 1501 1501 1497 1495 1492 1487 1484 1481 1475 1469 1466 1466 1468 1470 1472 1474 1476 1478 1481 1484 1487 1491 1494 1497 1501 1504 1508 1511 1513 1516 1518 1521 1524 1527 1529 1532 1534 1536 1538
1495 1499 1502 1507 1505 1498 1494 1498 1502 1503 1500 1495 1492 1496 1498 1499 1505 1509 1514 1527 1526 1511 1503 1502 1501 1501 1499 1497 1495 1492 1489 1483 1476 1470 1465 1463 1464 1465 1467 1469 1471 1474 1477 1481 1485 1489 1493 1496 1500 1503 1506 1508 1511 1513 1516 1518 1521 1524 1526 1529 1531 1533 1536
1506 1510 1508 1505 1505 1505 1506 1510 1514 1515 1512 1508 1504 1504 1505 1503 1505 1507 1514 1529 1527 1508 1501 1503 1501 1501 1501 1498 1497 1494 1490 1485 1479 1473 1466 1462 1463 1464 1466 1468 1469 1472 1475 1478 1482 1486 1490 1494 1497 1500 1503 1506 1508 1511 1513 1516 1518 1521 1523 1526 1528 1531 1533
1514 1512 1509 1508 1507 1505 1506 1510 1516 1516 1515 1518 1520 1517 1513 1511 1511 1509 1512 1523 1523 1507 1502 1503 1501 1502 1501 1499 1497 1495 1491 1488 1482 1476 1470 1465 1464 1466 1469 1472 1474 1475 1477 1479 1481 1484 1488 1491 1493 1496 1499 1502 1505 1507 1510 1513 1515 1518 1521 1523 1526 1529 1531
1517 1512 1507 1507 1506 1506 1511 1515 1517 1517 1517 1520 1521 1519 1517 1518 1521 1520 1517 1521 1518 1505 1501 1503 1502 1502 1501 1499 1497 1494 1492 1489 1485 1480 1476 1472 1470 1468 1470 1474 1478 1480 1482 1484 1485 1485 1486 1488 1490 1493 1495 1498 1501 1504 1507 1510 1512 1515 1518 1521 1524 1527 1529
1522 1519 1514 1511 1511 1515 1522 1523 1521 1520 1519 1517 1516 1516 1517 1521 1528 1528 1525 1524 1517 1506 1503 1504 1502 1501 1501 1499 1497 1495 1493 1490 1488 1485 1482 1479 1476 1473 1472 1473 1476 1480 1484 1486 1488 1488 1488 1488 1488 1490 1492 1496 1498 1501 1504 1506 1509 1513 1516 1519 1521 1524 1526
1531 1531 1532 1530 1529 1529 1528 1527 1525 1522 1521 1520 1520 1522 1523 1525 1529 1529 1527 1526 1518 1508 1505 1505 1502 1501 1501 1499 1498 1495 1493 1492 1491 1488 1487 1485 1482 1479 1477 1476 1476 1478 1481 1483 1487 1489 1491 1492 1492 1492 1492 1494 1496 1499 1502 1504 1507 1510 1513 1516 1519 1521 1523
1536 1537 1539 1537 1535 1536 1533 1531 1528 1525 1524 1523 1523 1527 1529 1529 1530 1527 1526 1527 1520 1512 1510 1509 1506 1505 1504 1502 1500 1497 1496 1495 1494 1492 1491 1490 1488 1486 1484 1481 1479 1479 1479 1482 1484 1487 1490 1493 1495 1496 1496 1496 1497 1499 1502 1504 1506 1509 1511 1514 1516 1518 1520
1537 1537 1537 1534 1534 1536 1535 1533 1530 1527 1526 1526 1526 1529 1528 1528 1530 1527 1523 1525 1525 1520 1516 1513 1511 1510 1508 1507 1505 1502 1501 1500 1498 1496 1494 1493 1491 1489 1487 1485 1483 1482 1482 1483 1484 1485 1487 1489 1492 1495 1497 1498 1500 1501 1502 1504 1506 1508 1510 1512 1514 1516 1518
1536 1535 1534 1534 1534 1535 1533 1533 1532 1530 1528 1528 1529 1529 1525 1526 1530 1526 1520 1522 1526 1525 1520 1516 1515 1513 1512 1511 1510 1507 1505 1503 1501 1498 1496 1495 1494 1492 1491 1490 1488 1487 1486 1486 1486 1486 1487 1487 1489 1491 1493 1496 1499 1500 1502 1503 1505 1507 1509 1511 1512 1514 1515
1536 1535 1534 1533 1533 1534 1534 1533 1532 1530 1529 1527 1527 1526 1522 1522 1524 1521 1518 1521 1524 1525 1522 1518 1516 1516 1515 1514 1512 1509 1507 1505 1504 1501 1499 1498 1498 1496 1495 1494 1493 1491 1490 1489 1489 1489 1488 1488 1488 1489 1491 1493 1495 1497 1500 1501 1503 1505 1507 1509 1510 1512 1513
1535 1534 1534 1533 1534 1535 1535 1533 1531 1529 1528 1526 1524 1523 1521 1519 1519 1518 1519 1521 1522 1523 1521 1519 1518 1517 1515 1513 1512 1510 1510 1509 1506 1504 1502 1501 1500 1499 1498 1497 1496 1494 1492 1492 1491 1491 1490 1490 1490 1489 1489 1490 1492 1494 1497 1499 1501 1502 1504 1505 1507 1508 1509
1536 1533 1533 1533 1531 1531 1531 1531 1529 1527 1526 1525 1524 1522 1521 1519 1518 1517 1518 1520 1522 1523 1521 1519 1519 1517 1515 1514 1513 1512 1512 1511 1509 1507 1506 1504 1502 1501 1501 1500 1498 1496 1494 1493 1493 1493 1493 1492 1492 1491 1490 1489 1490 1492 1494 1496 1499 1500 1501 1501 1503 1504 1506
1538 1534 1532 1531 1529 1528 1528 1528 1528 1527 1526 1525 1523 1523 1522 1521 1521 1520 1520 1522 1524 1524 1522 1520 1519 1518 1517 1516 1514 1513 1513 1512 1511 1510 1509 1507 1504 1503 1503 1502 1500 1498 1496 1495 1495 1495 1494 1494 1493 1492 1491 1490 1489 1489 1490 1492 1495 1497 1498 1498 1499 1501 1503
1540 1536 1533 1532 1533 1532 1527 1524 1524 1526 1526 1525 1524 1523 1523 1523 1523 1523 1523 1524 1525 1524 1523 1523 1521 1520 1519 1518 1516 1515 1514 1513 1512 1512 1511 1508 1505 1505 1505 1505 1502 1500 1498 1497 1496 1496 1495 1495 1494 1493 1492 1491 1489 1488 1488 1489 1491 1493 1495 1496 1497 1498 1500
1542 1538 1537 1538 1537 1532 1525 1521 1521 1523 1524 1524 1524 1524 1525 1524 1524 1523 1524 1525 1525 1524 1524 1523 1522 1522 1521 1520 1517 1515 1514 1513 1512 1511 1511 1509 1507 1507 1508 1507 1504 1501 1499 1498 1497 1495 1495 1496 1495 1493 1492 1491 1489 1488 1488 1488 1489 1490 1492 1494 1495 1497 1498
1543 1543 1545 1542 1534 1527 1524 1522 1521 1521 1522 1523 1525 1526 1525 1525 1524 1524 1524 1525 1525 1524 1523 1523 1522 1521 1520 1519 1518 1516 1515 1514 1513 1512 1511 1510 1510 1510 1509 1507 1504 1502 1500 1498 1497 1495 1496 1496 1495 1493 1492 1490 1490 1489 1488 1487 1487 1488 1489 1491 1492 1494 1496
1544 1546 1547 1541 1535 1532 1527 1523 1523 1525 1525 1525 1527 1527 1525 1523 1524 1524 1523 1524 1524 1523 1522 1521 1520 1518 1517 1517 1517 1515 1515 1514 1514 1514 1513 1512 1511 1510 1508 1506 1504 1503 1501 1498 1497 1496 1496 1496 1495 1493 1492 1491 1490 1489 1488 1486 1486 1486 1487 1488 1489 1491 1493
1543 1546 1547 1545 1544 1541 1532 1528 1528 1528 1528 1527 1528 1528 1525 1522 1523 1523 1522 1523 1523 1522 1522 1520 1518 1516 1515 1515 1516 1515 1515 1514 1514 1513 1513 1512 1511 1509 1506 1504 1503 1502 1501 1498 1497 1497 1495 1496 1496 1493 1491 1490 1489 1488 1487 1485 1485 1485 1485 1486 1487 1488 1489
1545 1547 1549 1548 1546 1540 1533 1530 1530 1529 1528 1527 1528 1530 1527 1522 1522 1523 1522 1522 1522 1522 1522 1520 1518 1517 1517 1516 1516 1515 1515 1514 1513 1512 1511 1510 1509 1507 1505 1503 1501 1501 1500 1498 1497 1496 1495 1494 1494 1492 1491 1490 1489 1487 1485 1484 1483 1483 1483 1483 1484 1485 1486
1546 1547 1548 1545 1540 1535 1532 1531 1530 1529 1528 1527 1531 1534 1529 1523 1523 1524 1522 1522 1522 1522 1522 1521 1520 1521 1520 1518 1516 1515 1515 1514 1513 1512 1510 1508 1506 1505 1504 1503 1501 1499 1498 1496 1495 1494 1493 1493 1492 1490 1490 1489 1487 1485 1484 1483 1481 1481 1481 1481 1482 1483 1484
1547 1546 1546 1543 1536 1531 1530 1530 1528 1528 1528 1530 1534 1533 1526 1523 1524 1523 1522 1523 1522 1521 1522 1521 1520 1521 1520 1518 1516 1515 1514 1512 1511 1511 1510 1507 1506 1504 1502 1501 1501 1499 1496 1494 1493 1492 1492 1492 1491 1489 1487 1486 1485 1484 1482 1480 1479 1479 1479 1479 1480 1480 1481
1547 1546 1545 1543 1536 1530 1528 1528 1527 1528 1529 1531 1530 1526 1524 1525 1524 1523 1522 1522 1521 1521 1521 1520 1520 1519 1518 1516 1514 1513 1512 1511 1509 1508 1507 1506 1504 1503 1501 1499 1499 1497 1494 1492 1491 1491 1491 1491 1490 1488 1486 1484 1483 1482 1480 1478 1476 1476 1476 1477 1477 1477 1478
1546 1548 1547 1544 1536 1529 1527 1527 1527 1527 1528 1527 1525 1523 1524 1524 1523 1522 1522 1521 1520 1520 1518 1517 1517 1517 1515 1514 1512 1511 1510 1509 1507 1505 1505 1504 1502 1500 1499 1497 1496 1494 1492 1490 1489 1489 1489 1489 1487 1485 1483 1481 1480 1479 1477 1475 1473 1473 1473 1474 1474 1474 1475
1542 1546 1543 1535 1528 1525 1526 1527 1527 1526 1525 1524 1523 1523 1523 1522 1522 1522 1521 1519 1519 1519 1517 1515 1514 1513 1513 1512 1510 1508 1507 1506 1505 1503 1501 1501 1499 1498 1496 1495 1493 1492 1490 1488 1487 1487 1487 1486 1484 1482 1480 1477 1476 1475 1474 1472 1471 1470 1470 1471 1471 1471 1472
1534 1534 1529 1524 1522 1523 1525 1525 1524 1524 1524 1523 1523 1522 1521 1521 1520 1519 1518 1517 1517 1516 1515 1513 1511 1510 1510 1509 1508 1506 1504 1503 1502 1501 1498 1497 1496 1495 1493 1492 1490 1489 1487 1485 1483 1483 1482 1481 1479 1477 1476 1473 1472 1471 1470 1469 1468 1467 1466 1467 1468 1468 1468
1530 1525 1521 1521 1521 1521 1522 1522 1522 1522 1522 1522 1521 1520 1520 1519 1518 1517 1516 1515 1514 1513 1513 1511 1508 1506 1506 1506 1504 1503 1501 1499 1498 1497 1495 1493 1492 1491 1490 1489 1488 1487 1484 1481 1479 1477 1477 1476 1474 1471 1471 1470 1469 1468 1467 1466 1465 1464 1463 1464 1464 1465 1465
1529 1523 1518 1518 1519 1519 1520 1521 1520 1520 1520 1519 1519 1518 1517 1516 1516 1515 1513 1512 1511 1510 1510 1508 1506 1503 1502 1502 1501 1499 1498 1495 1494 1493 1492 1490 1488 1488 1487 1485 1485 1484 1482 1479 1477 1474 1472 1471 1469 1467 1466 1466 1466 1465 1463 1462 1461 1460 1460 1460 1461 1461 1461
1527 1522 1517 1517 1518 1518 1518 1518 1518 1518 1518 1517 1517 1516 1515 1514 1513 1512 1511 1509 1508 1507 1506 1506 1503 1500 1498 1498 1497 1495 1494 1492 1490 1489 1488 1486 1485 1483 1482 1482 1481 1480 1479 1477 1475 1472 1469 1467 1465 1464 1463 1463 1463 1462 1460 1459 1457 1456 1455 1456 1457 1457 1457
1524 1520 1516 1516 1516 1515 1515 1515 1515 1515 1515 1515 1514 1514 1513 1511 1510 1509 1507 1506 1505 1504 1503 1502 1500 1496 1493 1493 1493 1492 1490 1488 1487 1485 1484 1483 1481 1479 1478 1478 1477 1476 1476 1474 1472 1469 1467 1465 1463 1461 1461 1461 1461 1460 1458 1456 1454 1451 1450 1451 1452 1453 1452
1522 1516 1512 1513 1514 1513 1512 1513 1513 1513 1513 1512 1511 1510 1510 1508 1507 1506 1504 1502 1501 1500 1499 1498 1497 1493 1489 1488 1489 1488 1486 1484 1483 1482 1481 1480 1477 1475 1474 1474 1473 1473 1473 1472 1470 1468 1466 1464 1462 1459 1458 1458 1458 1458 1456 1453 1450 1448 1447 1448 1449 1449 1448
1514 1509 1508 1510 1511 1509 1509 1510 1510 1510 1510 1509 1508 1507 1506 1506 1504 1503 1501 1499 1496 1495 1494 1493 1492 1489 1486 1484 1484 1483 1481 1481 1480 1478 1477 1477 1474 1471 1471 1470 1469 1469 1469 1469 1468 1467 1465 1463 1462 1459 1456 1455 1456 1455 1453 1450 1447 1445 1445 1446 1446 1446 1445
1507 1505 1506 1508 1507 1506 1506 1507 1508 1507 1507 1507 1505 1504 1504 1503 1502 1500 1499 1496 1493 1490 1488 1487 1487 1485 1483 1481 1480 1478 1476 1476 1476 1474 1473 1473 1471 1469 1467 1466 1466 1466 1466 1466 1465 1465 1464 1463 1461 1458 1456 1455 1454 1452 1450 1447 1444 1443 1443 1444 1444 1443 1442
1504 1503 1504 1505 1505 1504 1504 1505 1504 1505 1505 1504 1503 1502 1501 1500 1499 1497 1496 1493 1490 1488 1484 1482 1481 1481 1479 1477 1475 1473 1472 1471 1472 1470 1468 1467 1467 1466 1464 1463 1463 1463 1463 1463 1462 1461 1461 1461 1459 1457 1455 1453 1452 1450 1447 1445 1443 1441 1441 1441 1441 1439 1438